Temperature
22 22 21 21 26 28 27 27 28 27 27 26 26 26 27 26 25 24 19 19 19 19 19 20 19 19 19 19 19 19 19 19 19 19 19 19 19 19 19 19 19 19 19 19 19 19 19 19 19
22 22 21 24 28 27 27 28 27 27 27 26 26 26 26 24 22 20 19 19 19 19 19 19 20 19 19 19 19 19 19 19 19 19 19 19 19 19 19 19 19 19 19 19 19 19 19 19 19
23 22 24 28 28 27 27 27 28 27 26 26 26 25 25 23 21 20 19 19 19 19 19 19 20 19 19 19 19 19 19 19 19 19 19 19 19 19 19 19 19 19 18 18 18 19 19 19 19
22 23 26 29 27 27 28 28 28 28 26 25 26 25 23 21 21 20 19 19 19 19 18 19 20 20 19 19 19 19 19 19 19 19 19 19 19 19 19 19 19 19 18 18 18 18 18 18 18
23 26 29 28 27 28 28 28 28 28 26 25 26 25 23 20 20 19 19 19 19 19 19 18 20 19 19 19 19 19 19 19 19 19 19 19 19 19 19 19 19 19 18 18 18 18 18 18 18
25 28 28 27 27 28 28 27 27 27 26 25 25 25 22 20 19 19 19 19 19 19 19 18 19 19 19 19 19 19 19 19 19 19 19 19 19 19 19 19 19 18 18 18 18 18 18 18 18
27 28 28 27 27 27 27 27 27 27 25 24 24 25 22 20 19 19 19 19 19 19 19 19 18 18 19 19 19 19 19 19 19 19 19 19 18 18 18 18 18 18 18 18 18 18 18 18 18
26 28 27 27 27 26 26 26 25 25 23 22 22 23 22 20 19 19 19 19 19 19 19 19 19 18 18 18 19 19 19 19 18 18 18 18 18 18 18 18 18 18 18 18 18 18 18 18 18
25 28 27 27 26 25 25 25 24 23 22 21 20 20 19 19 19 19 19 19 19 19 19 19 19 18 18 18 18 18 19 18 18 18 18 18 18 17 18 17 18 18 18 18 18 18 18 18 18
27 27 26 25 26 24 23 23 23 23 22 21 20 19 18 18 18 19 18 19 18 18 18 19 18 18 18 18 18 18 18 18 18 18 18 18 17 17 17 17 18 18 18 18 18 18 18 18 17
26 26 25 24 24 23 22 20 20 22 20 18 18 18 17 18 18 18 17 18 18 18 18 18 19 19 18 18 18 18 18 18 18 18 18 18 17 17 17 17 17 17 18 17 17 18 17 17 17
25 24 24 24 23 22 22 20 18 17 17 16 17 17 17 17 17 17 17 17 17 17 18 18 18 18 18 18 18 18 18 18 18 18 18 18 18 17 17 17 17 17 17 17 17 17 17 17 18
25 23 22 21 20 20 20 19 18 17 16 16 16 16 17 16 16 16 16 17 17 17 17 17 18 18 18 18 18 18 18 18 18 18 18 17 17 17 18 17 17 17 17 17 17 17 17 17 18
24 23 22 21 21 20 19 19 18 16 16 17 17 16 16 16 16 16 16 16 16 17 17 17 17 18 18 18 18 18 18 18 18 18 18 18 17 17 18 17 17 17 17 17 17 17 17 17 18
24 24 23 22 22 21 21 19 17 16 17 17 17 16 16 16 16 15 15 15 16 16 16 16 17 17 17 18 18 18 18 18 18 18 18 18 18 17 17 17 17 17 17 17 17 17 17 17 17
26 25 24 21 21 21 22 18 17 16 17 17 17 16 16 16 15 15 15 15 15 15 15 15 16 16 17 17 17 18 18 18 18 18 18 18 18 17 17 17 17 17 17 17 17 17 17 17 17
26 26 24 22 21 21 21 18 17 17 17 17 17 17 16 16 15 15 14 14 14 14 14 15 15 16 16 17 17 17 17 17 18 18 18 18 18 18 17 17 17 17 17 17 17 17 17 17 17
26 26 24 22 20 21 19 18 18 17 17 17 17 17 16 16 15 14 14 14 14 14 14 14 14 15 15 16 16 16 17 17 17 17 17 17 17 17 17 17 17 17 17 17 17 17 17 17 17
25 25 23 21 20 20 19 18 18 17 17 17 17 16 16 16 15 14 14 14 14 14 14 14 14 14 14 15 15 15 16 16 16 17 17 17 17 17 17 17 17 17 17 17 17 17 17 17 17
24 24 22 20 20 20 19 18 18 17 17 16 16 16 16 15 15 14 14 13 13 13 13 13 13 13 14 14 14 15 15 15 16 16 16 16 17 17 17 17 17 17 17 17 16 16 16 17 17
23 23 22 21 19 19 20 19 19 18 17 17 16 16 15 15 14 14 13 13 13 13 12 13 12 13 13 13 14 14 14 15 15 15 16 16 16 16 17 17 17 17 16 16 16 16 16 16 16
23 21 21 21 21 21 20 21 19 18 18 17 16 16 15 14 14 14 13 13 13 12 12 12 12 12 13 13 13 14 14 14 14 15 15 15 16 16 16 16 16 16 16 16 16 16 16 16 16
21 20 21 21 21 21 20 21 20 19 18 17 17 16 15 14 14 14 13 13 13 12 12 12 12 12 12 13 13 13 13 14 14 14 15 15 15 15 16 16 16 16 16 16 16 16 16 16 16
21 21 21 21 22 21 20 20 19 18 17 17 17 16 15 15 14 14 13 13 13 12 12 12 12 12 12 12 13 13 13 13 13 14 14 14 15 15 15 15 15 15 16 16 16 16 16 16 16
22 22 23 22 22 21 19 19 18 17 17 16 16 15 15 14 14 13 13 13 12 12 12 12 11 12 12 12 12 13 13 13 13 13 14 14 14 15 15 15 15 15 15 16 16 15 16 16 16
21 22 22 22 22 21 19 19 18 17 16 16 16 15 15 14 14 13 13 13 12 12 12 11 11 11 12 12 12 12 12 13 13 13 13 14 14 14 14 15 15 15 15 15 15 15 15 15 15
21 21 21 22 21 21 20 19 18 17 17 16 16 15 15 14 14 13 13 13 12 12 12 11 11 11 11 12 12 12 12 12 13 13 13 13 14 14 14 14 14 15 15 15 15 15 15 15 15
21 20 21 21 21 21 20 19 18 18 17 17 16 16 15 14 14 13 13 13 12 12 12 11 11 11 11 11 12 12 12 12 12 13 13 13 13 14 14 14 14 14 14 14 15 15 15 15 15
20 20 20 20 20 20 20 19 18 18 17 17 16 15 15 14 14 13 13 13 12 12 12 12 11 11 11 11 12 12 12 12 12 13 13 13 13 13 13 14 14 14 14 14 14 14 14 14 14
20 20 20 21 20 19 19 19 18 17 17 16 16 15 15 14 14 14 13 13 12 12 12 12 11 11 11 11 11 12 12 12 12 12 13 13 13 13 13 13 13 13 14 14 14 14 14 14 14
Wind_Speed
9 8 5 3 2 7 13 10 8 8 6 6 5 3 4 6 5 4 5 10 12 14 15 16 14 13 12 12 11 10 10 9 9 9 8 8 7 6 6 5 4 4 3 3 3 3 3 3 3
7 6 4 3 4 11 12 10 11 10 7 4 5 5 6 7 7 5 7 9 13 14 14 14 14 13 12 11 11 10 10 10 9 8 8 8 7 6 5 5 4 4 3 3 3 3 3 3 3
7 5 2 2 9 11 12 10 9 8 7 5 5 6 5 6 5 5 7 12 13 12 12 13 13 12 12 11 10 10 10 10 9 8 8 7 6 6 5 4 4 3 3 3 3 3 3 3 3
4 3 2 6 12 10 8 8 7 7 8 8 5 7 6 7 4 6 10 11 12 11 11 13 12 11 11 10 10 10 10 9 9 8 7 7 6 6 5 4 4 3 3 3 3 2 2 2 3
3 2 5 9 10 9 9 8 9 10 8 9 7 9 8 9 8 9 10 9 10 10 9 11 10 10 10 9 10 10 9 9 9 8 8 7 7 6 5 5 4 3 3 2 2 2 2 2 2
2 2 5 8 9 8 9 8 8 11 11 9 7 8 7 7 7 7 7 7 7 7 7 9 10 8 8 9 9 9 9 10 9 9 8 8 7 6 6 5 4 3 3 2 2 2 2 1 2
1 2 5 7 7 7 7 7 11 10 12 11 7 6 7 8 6 5 5 5 5 5 5 6 9 10 10 9 9 9 10 10 10 10 10 9 8 8 7 6 5 4 3 3 2 2 2 2 2
1 3 5 4 5 6 6 7 9 12 11 10 9 7 5 6 5 5 5 3 2 2 3 4 5 6 8 10 11 10 11 11 11 11 11 10 10 9 8 8 7 5 5 4 3 2 2 2 2
2 3 4 3 3 5 6 8 9 10 13 15 12 11 8 7 6 6 5 4 3 2 2 4 5 6 7 8 8 10 12 12 12 13 13 12 11 11 11 9 6 6 6 5 4 4 3 4 5
1 3 4 4 5 8 12 11 7 7 13 13 14 13 11 9 8 8 8 7 6 5 5 5 6 7 8 8 8 9 10 11 12 12 12 12 11 9 8 7 7 7 7 7 6 5 6 9 8
4 6 7 7 8 8 10 14 14 7 11 12 11 11 10 11 11 10 9 8 8 7 7 7 8 8 8 7 8 8 8 8 10 12 11 10 10 8 9 8 10 11 10 10 9 9 9 8 6
7 9 7 6 7 7 9 8 12 17 10 9 10 10 11 12 11 11 10 9 8 8 8 8 8 8 8 8 8 9 8 8 9 10 11 9 7 8 8 7 8 8 8 7 7 7 7 7 7
10 10 14 17 19 18 18 16 14 14 11 9 10 12 12 12 11 10 9 9 9 9 9 9 9 9 8 8 7 8 8 9 10 10 11 12 9 8 8 8 8 9 8 8 8 8 8 8 8
11 14 12 11 12 11 16 14 8 11 9 10 11 12 12 12 12 11 12 11 11 11 10 9 10 9 9 8 8 8 9 10 11 10 12 14 12 10 9 9 8 9 9 8 8 9 8 8 7
14 13 11 7 6 5 6 12 10 9 8 10 11 11 12 12 12 12 13 12 12 12 12 11 11 10 10 10 9 8 9 11 10 10 12 13 13 12 10 9 9 9 10 11 9 9 8 7 7
7 6 4 6 4 2 1 6 9 8 8 10 11 11 11 12 13 13 13 13 12 12 12 12 10 11 11 10 10 8 9 10 10 11 11 12 13 13 10 9 9 10 9 8 8 8 9 8 8
6 5 3 5 7 3 5 7 7 8 9 10 11 11 12 12 14 14 14 13 13 12 13 12 12 12 12 11 9 9 9 9 10 10 10 12 13 13 10 8 8 9 7 8 9 9 9 9 8
3 2 2 4 6 8 9 9 7 8 10 11 11 12 13 14 14 14 14 14 13 13 13 13 13 12 12 10 9 8 8 8 9 9 10 11 11 12 10 8 9 8 7 8 9 9 9 8 7
0 2 3 5 4 5 9 9 7 8 10 11 12 13 14 14 14 14 14 14 14 14 14 14 13 13 11 9 9 8 8 7 8 8 10 11 12 12 11 9 9 8 8 9 10 9 10 8 8
2 3 4 6 4 3 7 7 6 8 10 10 12 13 14 15 15 15 15 15 15 15 15 15 14 13 12 10 9 8 9 8 8 7 8 11 12 12 11 11 9 9 8 9 9 8 7 7 8
2 1 3 5 5 5 5 5 4 5 7 9 11 11 13 14 15 16 16 16 15 16 15 14 15 14 13 13 10 9 7 7 6 6 6 8 11 12 11 11 10 10 9 9 9 9 10 8 9
1 2 2 6 6 3 4 3 4 3 6 10 11 12 13 14 14 14 15 16 16 15 15 15 15 14 13 12 10 11 8 8 7 6 5 6 8 9 10 11 11 10 10 11 11 11 9 9 9
3 1 3 5 4 3 2 5 3 3 7 10 11 12 13 13 14 14 14 15 15 15 15 15 15 15 14 13 11 10 9 8 7 6 6 5 5 7 8 9 10 11 10 12 12 11 11 10 10
3 4 4 5 5 4 1 4 2 4 8 9 10 11 12 13 13 14 14 14 14 15 15 15 16 16 15 14 12 10 11 10 8 7 5 4 3 4 6 7 8 9 9 11 11 12 13 11 11
3 4 3 4 4 0 2 2 2 4 5 7 9 11 12 12 13 14 15 15 15 16 16 15 16 16 15 14 13 11 10 9 8 7 6 4 3 3 4 5 6 7 8 9 10 11 12 13 13
1 4 4 4 3 1 1 1 2 2 4 5 7 9 10 12 12 13 14 14 14 15 15 15 16 16 16 14 13 11 10 7 6 7 6 5 4 3 4 4 6 7 7 8 9 9 11 11 12
1 1 3 3 2 2 1 1 2 1 3 5 7 8 10 11 12 13 13 14 14 14 14 14 15 15 15 14 13 11 11 10 8 8 6 5 4 3 3 3 4 5 6 7 8 8 10 9 10
4 1 3 3 3 2 1 0 2 2 4 6 7 9 10 11 12 12 12 13 13 12 12 13 14 14 14 14 12 10 11 10 9 8 8 7 5 4 3 2 2 2 4 6 7 7 8 9 9
1 1 1 1 3 3 2 2 2 2 4 6 7 8 9 10 11 12 12 12 12 12 13 13 13 14 14 14 13 12 11 10 10 9 9 7 6 5 4 3 1 0 1 3 5 6 7 8 8
2 2 2 2 0 1 2 2 3 1 3 5 6 7 8 9 10 11 11 11 12 12 13 13 13 13 13 13 12 12 12 11 11 10 10 8 7 6 6 5 4 3 2 1 2 4 6 7 8
Wind_Direction
183 178 186 213 191 83 69 60 52 52 57 58 62 56 50 39 15 55 110 147 143 147 147 151 153 151 148 147 146 144 142 140 141 142 143 145 147 148 145 143 142 138 135 130 129 131 127 133 135
167 167 207 238 81 80 69 56 53 49 63 71 68 59 64 58 46 84 131 142 149 149 152 153 151 155 154 154 153 152 150 149 148 149 149 151 154 154 152 151 150 149 142 134 129 125 121 118 112
166 204 257 77 67 66 66 50 54 65 58 50 69 54 49 45 59 101 131 147 152 151 153 146 156 158 158 158 159 159 158 156 155 155 155 157 159 157 156 156 155 150 144 132 125 123 122 113 109
187 214 218 89 79 65 53 51 48 65 59 47 64 76 70 45 46 101 133 149 151 154 156 150 162 162 164 164 165 166 166 163 163 163 164 164 164 165 167 170 170 162 150 134 120 123 125 124 121
231 229 117 95 83 72 58 46 54 60 57 49 60 82 75 50 68 107 133 147 154 157 159 156 164 169 172 174 175 176 175 174 175 176 177 176 177 176 178 180 177 177 169 150 131 136 143 132 128
234 206 115 95 89 78 63 51 57 60 61 51 52 78 74 65 81 109 128 149 154 158 165 162 164 180 185 188 189 188 188 188 189 189 190 188 188 188 188 189 187 186 184 172 160 150 151 145 138
261 122 107 108 102 78 45 47 49 55 52 39 28 76 90 64 67 102 120 136 147 161 180 190 183 189 195 204 207 205 204 203 202 200 199 198 197 199 199 198 197 198 197 191 175 158 150 154 162
310 141 124 110 106 72 46 68 52 46 52 39 31 51 75 67 73 88 92 97 123 177 206 223 219 225 217 208 207 216 218 216 213 211 208 205 204 206 206 209 196 205 204 199 192 183 174 173 171
266 159 121 100 96 72 54 78 64 62 67 57 49 47 59 76 79 76 72 61 44 350 296 276 266 252 251 247 225 218 224 225 222 218 214 213 218 212 205 210 180 209 213 205 199 198 191 194 177
11 117 83 69 90 96 68 59 48 67 53 42 42 47 55 58 55 51 42 30 18 359 336 311 289 276 264 256 250 239 235 228 228 228 217 219 226 224 226 157 193 216 217 208 202 202 206 223 196
60 83 99 87 96 102 91 65 42 67 46 26 25 35 44 49 44 38 32 22 8 355 349 334 318 301 287 269 260 250 248 240 240 241 234 228 231 226 223 211 197 208 211 213 188 207 216 217 206
92 70 80 82 82 81 83 85 61 53 48 34 39 43 43 41 37 28 20 11 1 354 348 336 326 310 291 274 262 255 251 248 242 239 240 233 232 235 226 224 218 213 211 216 216 220 211 221 207
102 95 84 87 87 86 88 84 77 52 45 47 50 48 42 36 30 24 14 6 358 352 344 337 327 316 301 285 269 259 254 254 251 242 240 233 231 234 229 226 221 225 222 213 220 220 211 214 214
110 111 102 93 92 85 83 75 63 37 33 44 45 42 36 30 22 15 9 360 353 347 341 335 327 319 309 293 273 264 258 250 253 248 241 238 234 233 231 230 223 225 224 222 219 219 213 216 212
126 118 102 73 94 119 96 62 44 27 30 39 38 37 32 27 20 14 6 356 350 344 339 337 330 324 316 304 290 273 262 255 248 245 243 240 239 238 233 234 226 223 220 217 219 218 218 214 209
165 169 131 61 45 54 193 71 41 28 34 38 32 30 26 23 16 12 4 357 352 345 340 337 332 327 320 311 299 283 265 256 249 245 242 238 235 236 237 233 232 230 222 217 212 219 216 210 213
205 219 150 93 38 73 93 90 54 36 37 37 30 25 20 17 13 9 2 357 351 346 341 337 335 330 326 318 304 290 277 263 253 244 242 239 233 230 230 228 229 230 224 218 217 211 218 215 215
233 223 139 100 64 91 99 99 69 45 38 33 26 21 18 14 8 3 360 355 350 348 345 342 338 335 331 322 314 301 284 271 258 247 238 236 234 228 225 224 224 221 220 219 217 214 216 225 218
352 197 129 107 112 94 104 100 74 49 38 29 23 17 13 8 4 4 360 356 353 352 349 346 342 340 335 328 321 312 298 284 266 253 241 233 230 226 223 224 221 216 216 218 217 213 215 220 220
143 166 133 123 129 134 126 106 83 52 40 29 19 14 9 2 1 3 359 357 355 353 349 345 344 340 337 329 317 305 300 288 275 265 249 236 231 226 224 219 216 211 211 213 218 213 213 216 217
86 309 170 155 144 158 175 161 98 65 42 31 23 15 10 4 359 0 359 358 355 354 351 347 345 342 339 333 323 317 308 294 284 274 258 245 234 227 220 218 213 208 207 211 211 211 215 217 219
124 51 168 173 193 183 236 253 109 45 31 24 18 13 8 3 360 1 359 357 356 355 351 348 346 344 343 337 331 325 313 302 295 291 277 257 239 229 220 215 213 208 205 208 209 209 215 217 218
56 87 188 201 226 219 231 276 106 42 14 13 9 7 4 1 359 358 357 355 355 355 353 350 348 347 346 342 337 331 324 313 306 304 291 274 251 234 224 219 215 210 207 207 207 208 210 214 219
135 154 151 191 228 243 331 292 55 28 1 356 358 360 359 358 357 355 355 355 356 356 355 352 349 349 347 346 343 341 336 330 323 316 307 297 269 240 225 218 219 215 210 207 207 210 211 213 217
234 244 235 219 224 143 53 293 46 27 357 345 345 350 353 355 356 355 354 354 355 356 356 353 352 351 349 349 346 345 343 334 330 325 314 303 289 265 235 218 215 215 212 210 211 210 211 213 214
7 299 309 310 321 81 179 326 74 24 342 338 343 348 353 356 357 356 355 354 354 355 355 355 353 352 351 351 350 348 348 342 337 333 328 318 307 284 261 229 220 219 214 213 212 213 213 212 212
302 19 342 300 296 267 139 141 163 237 330 343 349 352 355 355 354 352 352 354 355 356 356 355 355 354 354 355 354 354 353 354 351 344 339 335 326 313 289 249 225 217 214 213 212 215 213 212 212
31 29 258 283 303 304 174 214 20 360 349 347 349 351 352 351 351 352 352 353 355 355 356 357 358 356 356 357 359 359 358 359 358 358 358 354 347 342 322 286 236 214 209 210 209 212 208 206 208
94 103 29 350 323 314 318 91 60 356 344 340 346 350 349 349 351 352 353 354 356 359 1 360 359 358 359 359 359 1 3 4 5 6 5 4 2 3 359 348 338 67 196 204 209 207 204 203 203
16 21 303 306 32 312 301 91 119 288 325 330 337 344 347 349 351 352 354 356 360 3 3 2 1 1 0 360 2 5 7 9 10 10 10 14 20 22 21 26 43 47 48 61 194 193 194 196 195
Height
1535 1534 1535 1537 1535 1532 1537 1536 1531 1531 1532 1535 1535 1535 1534 1536 1539 1547 1548 1548 1550 1552 1553 1554 1556 1558 1559 1560 1561 1562 1562 1563 1564 1564 1565 1565 1565 1565 1566 1566 1566 1566 1566 1566 1566 1566 1566 1566 1566
1536 1535 1538 1537 1531 1540 1543 1535 1535 1535 1537 1538 1537 1537 1537 1541 1545 1547 1547 1549 1552 1554 1556 1557 1558 1559 1560 1561 1562 1563 1563 1564 1564 1565 1565 1565 1565 1566 1566 1566 1566 1566 1566 1566 1566 1566 1566 1567 1567
1536 1536 1539 1534 1535 1541 1543 1537 1536 1538 1539 1538 1539 1541 1542 1546 1549 1549 1550 1551 1554 1556 1558 1558 1559 1560 1561 1562 1563 1563 1564 1564 1565 1565 1565 1565 1566 1566 1566 1566 1566 1566 1566 1566 1567 1567 1567 1567 1567
1538 1540 1539 1534 1541 1541 1539 1537 1538 1538 1540 1541 1541 1543 1547 1551 1552 1552 1552 1554 1556 1558 1559 1559 1560 1561 1562 1562 1563 1564 1564 1565 1565 1565 1565 1565 1566 1566 1566 1566 1566 1566 1566 1566 1566 1567 1567 1567 1567
1539 1539 1535 1539 1541 1540 1539 1540 1540 1540 1542 1544 1543 1545 1550 1554 1553 1554 1554 1557 1558 1560 1561 1561 1560 1561 1562 1563 1563 1564 1564 1564 1565 1565 1565 1565 1565 1565 1566 1566 1566 1566 1566 1566 1566 1567 1567 1567 1567
1541 1536 1538 1545 1544 1541 1541 1543 1542 1542 1544 1546 1546 1548 1554 1556 1556 1557 1557 1559 1561 1561 1562 1562 1561 1562 1562 1563 1563 1564 1564 1564 1564 1564 1564 1565 1565 1565 1565 1565 1565 1565 1565 1566 1566 1566 1566 1567 1567
1541 1536 1541 1543 1545 1545 1546 1546 1545 1545 1548 1551 1551 1550 1555 1558 1558 1559 1559 1560 1561 1562 1563 1563 1563 1562 1561 1562 1562 1563 1563 1563 1563 1564 1564 1564 1564 1564 1564 1564 1564 1565 1565 1565 1565 1565 1566 1566 1567
1540 1538 1542 1543 1547 1549 1549 1549 1551 1551 1554 1556 1555 1554 1558 1560 1560 1560 1561 1561 1562 1562 1563 1563 1563 1563 1562 1562 1561 1561 1562 1562 1562 1562 1563 1563 1563 1563 1563 1563 1563 1564 1564 1564 1564 1565 1565 1566 1566
1541 1540 1545 1546 1548 1551 1552 1551 1555 1558 1559 1560 1560 1561 1562 1561 1561 1562 1562 1562 1561 1561 1562 1562 1562 1561 1561 1561 1560 1560 1560 1560 1560 1561 1561 1561 1562 1563 1563 1563 1562 1563 1563 1563 1564 1564 1565 1565 1566
1541 1542 1549 1550 1550 1554 1556 1557 1559 1560 1561 1563 1564 1564 1564 1563 1562 1562 1562 1562 1561 1561 1561 1560 1560 1560 1559 1559 1559 1558 1558 1558 1558 1559 1559 1559 1561 1562 1562 1561 1561 1561 1562 1562 1562 1563 1564 1565 1567
1543 1547 1551 1553 1554 1556 1558 1563 1564 1562 1566 1570 1568 1567 1566 1564 1563 1562 1562 1561 1560 1560 1559 1558 1558 1557 1557 1556 1556 1555 1555 1555 1556 1557 1557 1557 1558 1559 1559 1560 1560 1560 1561 1562 1562 1563 1565 1566 1567
1548 1553 1553 1555 1557 1558 1559 1564 1568 1570 1575 1574 1571 1569 1568 1566 1564 1563 1562 1561 1560 1559 1557 1556 1555 1554 1553 1553 1553 1553 1552 1552 1553 1553 1554 1555 1555 1556 1557 1558 1559 1560 1560 1561 1562 1563 1565 1565 1567
1549 1557 1560 1561 1562 1564 1565 1568 1572 1577 1577 1576 1573 1571 1569 1567 1566 1565 1563 1561 1559 1557 1555 1554 1552 1551 1550 1550 1549 1549 1549 1549 1550 1550 1550 1551 1552 1553 1554 1555 1556 1557 1558 1559 1560 1562 1563 1564 1566
1553 1557 1561 1563 1564 1567 1568 1572 1575 1579 1579 1577 1575 1572 1571 1569 1567 1565 1563 1561 1559 1556 1554 1552 1550 1548 1547 1546 1545 1545 1544 1544 1544 1545 1546 1547 1548 1549 1550 1551 1552 1554 1555 1557 1558 1560 1562 1563 1564
1555 1557 1561 1565 1565 1568 1567 1574 1580 1581 1580 1578 1575 1574 1572 1570 1568 1565 1563 1560 1558 1555 1552 1550 1547 1545 1544 1542 1541 1540 1540 1540 1540 1540 1541 1543 1544 1545 1546 1548 1549 1551 1553 1554 1556 1558 1560 1561 1562
1552 1553 1560 1568 1567 1568 1568 1580 1584 1582 1580 1578 1576 1574 1572 1570 1568 1565 1562 1559 1556 1553 1550 1547 1544 1542 1540 1538 1536 1535 1535 1534 1535 1535 1536 1537 1539 1540 1541 1543 1545 1548 1549 1551 1553 1555 1557 1559 1560
1550 1552 1559 1567 1569 1568 1569 1581 1584 1583 1581 1579 1577 1575 1572 1570 1568 1565 1562 1558 1555 1552 1548 1545 1542 1539 1537 1534 1532 1530 1530 1529 1529 1529 1530 1532 1533 1535 1536 1538 1540 1543 1546 1547 1550 1552 1554 1556 1558
1552 1553 1559 1567 1572 1571 1574 1581 1583 1583 1581 1579 1577 1575 1573 1570 1568 1565 1561 1558 1554 1551 1547 1543 1540 1537 1533 1531 1528 1526 1524 1524 1523 1523 1524 1525 1527 1529 1531 1533 1535 1538 1541 1543 1546 1548 1550 1553 1555
1552 1554 1561 1570 1574 1574 1577 1580 1582 1583 1582 1580 1577 1575 1573 1571 1568 1565 1561 1557 1553 1549 1545 1541 1537 1534 1530 1527 1524 1522 1520 1519 1518 1518 1518 1519 1521 1523 1525 1527 1530 1532 1535 1538 1542 1544 1547 1549 1552
1555 1558 1565 1573 1575 1574 1577 1580 1582 1583 1582 1581 1579 1577 1574 1571 1568 1565 1561 1557 1553 1548 1544 1540 1536 1532 1528 1524 1521 1518 1516 1514 1513 1512 1512 1513 1515 1516 1519 1521 1523 1526 1530 1533 1536 1539 1542 1545 1548
1559 1560 1563 1570 1576 1575 1576 1579 1579 1582 1582 1581 1580 1578 1575 1572 1568 1565 1560 1556 1552 1547 1543 1538 1534 1530 1525 1521 1518 1515 1512 1510 1509 1508 1507 1508 1509 1511 1513 1515 1517 1520 1524 1526 1530 1533 1537 1540 1543
1563 1566 1566 1569 1570 1571 1575 1571 1577 1579 1579 1580 1579 1578 1575 1572 1569 1565 1561 1556 1552 1547 1542 1538 1533 1528 1524 1519 1516 1512 1509 1507 1505 1504 1503 1503 1504 1505 1507 1509 1511 1514 1517 1521 1524 1528 1531 1535 1537
1566 1568 1566 1566 1566 1569 1571 1569 1573 1577 1578 1579 1579 1578 1575 1573 1569 1566 1561 1557 1552 1547 1542 1537 1532 1527 1522 1518 1514 1510 1507 1504 1502 1501 1500 1500 1500 1501 1502 1504 1506 1509 1511 1514 1518 1522 1526 1529 1532
1568 1568 1567 1566 1564 1569 1573 1573 1576 1578 1580 1579 1579 1577 1575 1573 1569 1566 1562 1557 1552 1547 1542 1536 1531 1526 1521 1517 1513 1509 1505 1503 1500 1499 1497 1497 1497 1497 1498 1500 1502 1504 1506 1509 1513 1516 1520 1523 1526
1565 1564 1564 1565 1566 1569 1575 1576 1580 1581 1581 1581 1580 1578 1576 1573 1569 1566 1561 1557 1552 1547 1541 1536 1531 1525 1520 1516 1511 1508 1504 1501 1499 1497 1496 1495 1495 1495 1495 1496 1498 1500 1502 1505 1508 1511 1514 1517 1520
1567 1564 1567 1568 1565 1569 1576 1577 1579 1581 1582 1582 1580 1578 1576 1573 1569 1566 1562 1557 1552 1547 1542 1537 1531 1526 1521 1516 1511 1507 1504 1501 1499 1496 1495 1494 1493 1493 1493 1494 1495 1496 1498 1500 1503 1506 1509 1512 1514
1566 1566 1568 1566 1568 1570 1573 1577 1578 1580 1580 1580 1579 1578 1575 1573 1570 1566 1562 1558 1553 1548 1543 1538 1532 1527 1522 1517 1512 1507 1504 1501 1499 1496 1495 1493 1492 1491 1492 1492 1493 1494 1495 1497 1499 1501 1504 1506 1508
1570 1570 1567 1566 1571 1570 1573 1576 1577 1578 1578 1578 1578 1577 1575 1573 1570 1566 1562 1558 1554 1549 1544 1539 1534 1529 1523 1518 1513 1509 1505 1502 1499 1497 1495 1493 1492 1491 1491 1491 1491 1492 1492 1494 1495 1497 1499 1501 1504
1571 1571 1570 1569 1570 1572 1575 1578 1576 1578 1579 1578 1578 1577 1575 1573 1570 1567 1563 1559 1555 1550 1545 1540 1535 1530 1525 1520 1515 1511 1508 1504 1501 1498 1496 1494 1493 1491 1490 1490 1490 1490 1491 1491 1493 1494 1496 1498 1501
1572 1572 1571 1570 1573 1574 1574 1579 1576 1578 1579 1579 1578 1577 1575 1573 1570 1567 1563 1559 1555 1551 1546 1542 1537 1532 1527 1522 1518 1514 1510 1506 1503 1500 1498 1496 1494 1493 1491 1491 1490 1490 1490 1490 1491 1491 1493 1495 1498